Regional Weather Roundup
Issued by NWS

Home | Current Version | Previous Version | Text Only | Print | Product List | Glossary On
Versions: 1 2 3 4 5 6 7 8 9 10 11 12 13 14 15 16 17 18 19 20 21 22 23 24 25 26 27 28 29 30 31 32 33 34 35 36 37 38 39 40 41 42 43 44 45 46 47 48 49 50
000
ASUS42 KKEY 281310
RWRKEY

FLORIDA REGIONAL WEATHER ROUNDUP FOR THE FLORIDA KEYS
NATIONAL WEATHER SERVICE KEY WEST FLORIDA
900 AM EDT FRI AUG 28 2015

...SOUTH FLORIDA AND THE KEYS...

CITY           SKY/WX    TMP DP  RH WIND       PRES   REMARKS
FORT MYERS     MOSUNNY   80  76  87 SE3       29.99R
SW REGIONAL AP MOSUNNY   79  75  87 SE5       30.00S
NAPLES         MOSUNNY   81  77  88 SE3       29.99S
MIAMI          PTSUNNY   84  78  82 S6        30.01S THUNDER HX  95
WEST KENDALL   PTSUNNY   83  77  82 SE3       30.01R HX  92
HOMESTEAD      MOSUNNY   81  75  84 E7        30.00R
MARATHON       SUNNY     87  75  67 VRB3      29.99F HX  96
BOCA CHICA NAS CLOUDY    85  75  72 SW6       29.99S HX  93
KEY WEST INTL  CLOUDY    83  74  74 CALM      29.99S

...INTERNATIONAL WEATHER...

CITY           SKY/WX    TMP DP  RH WIND       PRES   REMARKS
NASSAU BAHAMAS NOT AVBL
CANCUN MEXICO  LGT RAIN  77  75  94 E2G14     29.94
COZUMEL MEXICO PTSUNNY   75  75 100 CALM      29.94R

ADJACENT COASTAL WATERS...

STATION/POSITION TIME  SKY/WX   TEMP    WIND        PRES    WAVE
                                AIR SEA DIR/SP/G            HT/PER
                 (UTC)          (F)     (DEG/KT/KT) (MB)    (FT/S)
PULASKI SHOAL LI 1200            84     130/  6/  7 1015.3R
SAND KEY         1250            84     230/  2     1015.4F
SOMBRERO KEY     NOT AVBL
LONG KEY         1300            86 87  210/  4/  5 1016.4F
MOLASSES REEF    1300            85 87  140/  3/  3 1016.1R
FOWEY ROCKS      NOT AVBL

$$


USA.gov is the U.S. government's official web portal to all federal, state and local government web resources and services.